De Kooy, Netherlands

5:40 AM CEST on June 28, 2017 (GMT +0200)
De Kooy Navy

Weather History for EHKD - December, 2012

Change the Weather History Date:

Wednesday, December 12, 2012

  Actual Average Record
Temperature  
Mean Temperature 38 °F -  
Max Temperature 42 °F 42 °F 55 °F (2000)
Min Temperature 33 °F 34 °F 21 °F (2002)
Degree Days  
Heating Degree Days 28    
Moisture  
Dew Point 34 °F    
Average Humidity 83    
Maximum Humidity 100    
Minimum Humidity 60    
Precipitation  
Precipitation 0.04 in 0.09 in - ()
Sea Level Pressure  
Sea Level Pressure 30.08 in    
Wind  
Wind Speed 10 mph ()    
Max Wind Speed 18 mph    
Max Gust Speed 24 mph    
Visibility 5.8 miles    
Events Rain    
Averages and records for this station are not official NWS values.
T = Trace of Precipitation, MM = Missing Value Source: Averaged Metar Reports

Daily Weather History Graph

Daily Weather History Graph

Search for Another Location

Airport or City:

Trip Planner

Search our weather history database for the weather conditions in past years. The results will help you decide how hot, cold, wet, or windy it might be!

Date:

Astronomy

Dec. 12, 2012 Rise Set
Actual Time 8:45 AM CET 4:24 PM CET
Civil Twilight 8:03 AM CET 5:06 PM CET
Nautical Twilight 7:18 AM CET 5:51 PM CET
Astronomical Twilight 6:36 AM CET 6:33 PM CET
Moon 7:27 AM CET (12/12) 3:48 PM CET (12/12)
Length of Visible Light 9h 03m
Length of Day
7h 39m
Waning Crescent, 1% of the Moon is Illuminated
Dec 12
Waning Crescent
Dec 13
New
Dec 20
First Quarter
Dec 28
Full
Jan 5
Last Quarter

Hourly Weather History & Observations

Time (CET) Temp. Windchill Dew Point Humidity Pressure Visibility Wind Dir Wind Speed Gust Speed Precip Events Conditions
12:01 AM 39.2 °F 31.2 °F 35.6 °F 87% 30.18 in 6.2 mi West 13.8 mph - N/A Rain Light Rain
12:12 AM 39.2 °F 31.2 °F 35.6 °F 87% 30.18 in 6.2 mi West 13.8 mph - N/A   Mostly Cloudy
12:25 AM 39.2 °F 31.6 °F 35.6 °F 87% 30.18 in 6.2 mi West 12.7 mph - N/A   Overcast
12:55 AM 39.2 °F 32.0 °F 35.6 °F 87% 30.18 in 4.3 mi WNW 11.5 mph - N/A Rain Light Rain
12:57 AM 39.2 °F 32.0 °F 35.6 °F 87% 30.18 in 6.2 mi WNW 11.5 mph - N/A Rain Light Rain Showers
1:00 AM 39 °F - 36 °F 84% 30.18 in 6 mi NW 11.2 mph - - Rain Light Rain Showers
1:03 AM 39.2 °F 32.5 °F 35.6 °F 87% 30.18 in 2.2 mi NW 10.4 mph - N/A Rain Rain
1:07 AM 39.2 °F 33.0 °F 35.6 °F 87% 30.18 in 6.2 mi NW 9.2 mph - N/A Rain Rain
1:17 AM 39.2 °F 33.6 °F 35.6 °F 87% 30.15 in 6.2 mi WNW 8.1 mph - N/A   Mostly Cloudy
1:25 AM 39.2 °F 32.5 °F 35.6 °F 87% 30.15 in 6.2 mi WNW 10.4 mph - N/A   Partly Cloudy
1:47 AM 39.2 °F 32.0 °F 35.6 °F 87% 30.15 in 6.2 mi West 11.5 mph - N/A   Mostly Cloudy
1:55 AM 39.2 °F 31.6 °F 37.4 °F 93% 30.15 in 6.2 mi West 12.7 mph - N/A   Mostly Cloudy
2:08 AM 41.0 °F 33.5 °F 37.4 °F 87% 30.15 in 6.2 mi WNW 13.8 mph - N/A   Overcast
2:25 AM 41.0 °F 33.5 °F 37.4 °F 87% 30.15 in 6.2 mi WNW 13.8 mph - N/A Rain Light Rain
2:27 AM 41.0 °F 33.9 °F 37.4 °F 87% 30.15 in 6.2 mi WNW 12.7 mph - N/A   Mostly Cloudy
2:36 AM 41.0 °F 33.5 °F 35.6 °F 81% 30.15 in 6.2 mi WNW 13.8 mph - N/A   Overcast
2:49 AM 41.0 °F 34.3 °F 35.6 °F 81% 30.15 in 6.2 mi WNW 11.5 mph - N/A   Overcast
2:55 AM 41.0 °F 34.3 °F 35.6 °F 81% 30.12 in 6.2 mi WNW 11.5 mph - N/A   Mostly Cloudy
3:11 AM 41.0 °F 34.3 °F 35.6 °F 81% 30.12 in 6.2 mi NW 11.5 mph - N/A   Mostly Cloudy
3:25 AM 41.0 °F 33.5 °F 33.8 °F 76% 30.12 in 6.2 mi NW 13.8 mph - N/A   Drizzle
3:27 AM 41.0 °F 33.5 °F 33.8 °F 76% 30.12 in 6.2 mi NW 13.8 mph - N/A   Mostly Cloudy
3:32 AM 39.2 °F 30.8 °F 35.6 °F 87% 30.12 in 3.1 mi WNW 15.0 mph - N/A   Mostly Cloudy
3:36 AM 37.4 °F 28.2 °F 35.6 °F 93% 30.12 in 3.1 mi WNW 16.1 mph - N/A Rain Rain Showers
3:41 AM 39.2 °F 31.6 °F 35.6 °F 87% 30.12 in 3.7 mi WNW 12.7 mph 24.2 mph N/A Rain Light Rain Showers
3:45 AM 39.2 °F 32.0 °F 35.6 °F 87% 30.12 in 3.7 mi WNW 11.5 mph - N/A Rain Light Rain Showers
3:55 AM 39.2 °F 31.6 °F 35.6 °F 87% 30.12 in 2.2 mi NW 12.7 mph - N/A Rain Rain
3:57 AM 37.4 °F 28.9 °F 35.6 °F 93% 30.12 in - NW 13.8 mph - N/A Rain Rain Showers
4:00 AM 38 °F - 35 °F 87% 30.14 in 4 mi NW 8.9 mph - - Rain Light Rain Showers
4:01 AM 37.4 °F 30.3 °F 35.6 °F 93% 30.12 in 6.2 mi NW 10.4 mph - N/A Rain Light Rain Showers
4:14 AM 37.4 °F 33.8 °F 35.6 °F 93% 30.12 in 6.2 mi NNW 4.6 mph - N/A   Mostly Cloudy
4:25 AM 37.4 °F 33.8 °F 35.6 °F 93% 30.12 in 6.2 mi NNW 4.6 mph - N/A   Mostly Cloudy
4:27 AM 37.4 °F 34.9 °F 35.6 °F 93% 30.12 in 3.7 mi NNW 3.5 mph - N/A   Mostly Cloudy
4:40 AM 39.2 °F 35.0 °F 35.6 °F 87% 30.12 in 6.2 mi West 5.8 mph - N/A   Mostly Cloudy
4:47 AM 39.2 °F 33.6 °F 35.6 °F 87% 30.12 in 6.2 mi WNW 8.1 mph - N/A   Mostly Cloudy
4:55 AM 39.2 °F 32.5 °F 35.6 °F 87% 30.12 in 6.2 mi WNW 10.4 mph - N/A   Mostly Cloudy
5:14 AM 39.2 °F 32.0 °F 35.6 °F 87% 30.09 in 4.3 mi WNW 11.5 mph - N/A Rain Light Rain
5:18 AM 39.2 °F 32.0 °F 35.6 °F 87% 30.09 in 6.2 mi WNW 11.5 mph - N/A Rain Light Rain
5:25 AM 39.2 °F 32.5 °F 35.6 °F 87% 30.09 in 6.2 mi WNW 10.4 mph - N/A Rain Light Rain
5:27 AM 39.2 °F 32.0 °F 35.6 °F 87% 30.09 in 6.2 mi WNW 11.5 mph - N/A Rain Light Rain
5:40 AM 39.2 °F 33.6 °F 35.6 °F 87% 30.09 in 6.2 mi WNW 8.1 mph - N/A   Mostly Cloudy
5:44 AM 39.2 °F 33.0 °F 35.6 °F 87% 30.09 in 6.2 mi NW 9.2 mph - N/A   Mostly Cloudy
5:48 AM 39.2 °F 32.5 °F 35.6 °F 87% 30.09 in 3.1 mi NW 10.4 mph 21.9 mph N/A Rain Rain
5:55 AM 39.2 °F 33.0 °F 35.6 °F 87% 30.09 in 6.2 mi NW 9.2 mph 21.9 mph N/A Rain Light Rain
5:57 AM 37.4 °F 32.1 °F 35.6 °F 93% 30.09 in 6.2 mi NW 6.9 mph - N/A   Mostly Cloudy
6:10 AM 37.4 °F 34.9 °F 35.6 °F 93% 30.09 in 6.2 mi NW 3.5 mph - N/A   Mostly Cloudy
6:17 AM 37.4 °F 34.9 °F 35.6 °F 93% 30.09 in 6.2 mi NNW 3.5 mph - N/A   Mostly Cloudy
6:25 AM 37.4 °F 33.8 °F 35.6 °F 93% 30.09 in 2.5 mi NW 4.6 mph - N/A Rain Rain
6:27 AM 37.4 °F 33.8 °F 35.6 °F 93% 30.09 in 6.2 mi NW 4.6 mph - N/A Rain Light Rain
6:31 AM 39.2 °F 35.9 °F 35.6 °F 87% 30.09 in 6.2 mi NW 4.6 mph - N/A   Mostly Cloudy
6:35 AM 37.4 °F 34.9 °F 35.6 °F 93% 30.09 in 6.2 mi NW 3.5 mph - N/A   Mostly Cloudy
6:39 AM 39.2 °F 35.9 °F 35.6 °F 87% 30.09 in 6.2 mi NW 4.6 mph - N/A   Mostly Cloudy
6:55 AM 37.4 °F - 35.6 °F 93% 30.09 in 6.2 mi NNW 2.3 mph - N/A   Mostly Cloudy
6:57 AM 37.4 °F - 35.6 °F 93% 30.09 in 6.2 mi NNW 2.3 mph - N/A   Mostly Cloudy
7:00 AM 37 °F - 36 °F 92% 30.10 in 25 mi NNW 2.2 mph - - Rain Rain
7:09 AM 37.4 °F - 35.6 °F 93% 30.09 in 6.2 mi NW 2.3 mph - N/A   Mostly Cloudy
7:16 AM 39.2 °F 37.0 °F 35.6 °F 87% 30.09 in 6.2 mi NW 3.5 mph - N/A   Mostly Cloudy
7:25 AM 39.2 °F 35.9 °F 35.6 °F 87% 30.09 in 6.2 mi NW 4.6 mph - N/A   Mostly Cloudy
7:29 AM 41.0 °F 36.4 °F 35.6 °F 81% 30.09 in 6.2 mi NW 6.9 mph - N/A   Mostly Cloudy
7:33 AM 41.0 °F 35.2 °F 35.6 °F 81% 30.09 in 6.2 mi NW 9.2 mph 23.0 mph N/A   Mostly Cloudy
7:38 AM 41.0 °F 34.3 °F 35.6 °F 81% 30.09 in 6.2 mi NW 11.5 mph 23.0 mph N/A   Mostly Cloudy
7:55 AM 39.2 °F 35.0 °F 35.6 °F 87% 30.09 in 6.2 mi NNE 5.8 mph - N/A   Mostly Cloudy
8:25 AM 37.4 °F 34.9 °F 35.6 °F 93% 30.09 in 2.2 mi NE 3.5 mph - N/A Rain Rain
8:31 AM 37.4 °F - 37.4 °F 100% 30.09 in 2.5 mi NNW 2.3 mph - N/A Rain Rain
8:35 AM 37.4 °F - 35.6 °F 93% 30.09 in 3.1 mi West 2.3 mph - N/A Rain Light Rain
8:48 AM 37.4 °F - 35.6 °F 93% 30.09 in 6.2 mi WNW 2.3 mph - N/A   Overcast
8:55 AM 37.4 °F - 37.4 °F 100% 30.09 in 6.2 mi West 1.2 mph - N/A   Overcast
8:57 AM 37.4 °F - 35.6 °F 93% 30.09 in 3.1 mi WNW 2.3 mph - N/A Rain Light Rain
9:08 AM 37.4 °F - 35.6 °F 93% 30.09 in 6.2 mi NW 2.3 mph - N/A Rain Light Rain
9:12 AM 37.4 °F 34.9 °F 35.6 °F 93% 30.09 in 6.2 mi WNW 3.5 mph - N/A Rain Light Rain Showers
9:16 AM 37.4 °F 32.8 °F 35.6 °F 93% 30.09 in 6.2 mi WNW 5.8 mph - N/A Rain Light Rain Showers
9:25 AM 37.4 °F 32.1 °F 35.6 °F 93% 30.09 in 6.2 mi WNW 6.9 mph 18.4 mph N/A Rain Light Rain
9:40 AM 37.4 °F 30.3 °F 35.6 °F 93% 30.09 in 3.7 mi NW 10.4 mph - N/A Rain Light Rain
9:48 AM 37.4 °F 31.4 °F 35.6 °F 93% 30.09 in - NW 8.1 mph - N/A Rain Light Rain
9:55 AM 39.2 °F 35.0 °F 35.6 °F 87% 30.09 in 3.1 mi NW 5.8 mph - N/A Rain Light Rain Showers
9:57 AM 39.2 °F 34.2 °F 35.6 °F 87% 30.09 in 3.1 mi NW 6.9 mph - N/A Rain Light Rain
10:00 AM 38 °F - 36 °F 89% 30.10 in 5 mi WNW 6.7 mph - - Rain Light Rain
10:04 AM 39.2 °F 35.0 °F 35.6 °F 87% 30.09 in 6.2 mi WNW 5.8 mph - N/A Rain Light Rain
10:13 AM 37.4 °F 33.8 °F 35.6 °F 93% 30.09 in 6.2 mi WSW 4.6 mph - N/A   Drizzle
10:17 AM 37.4 °F 33.8 °F 35.6 °F 93% 30.09 in 6.2 mi SW 4.6 mph - N/A Rain Light Rain
10:25 AM 37.4 °F 32.8 °F 35.6 °F 93% 30.09 in 6.2 mi WSW 5.8 mph - N/A Rain Light Rain
10:36 AM 39.2 °F 35.9 °F 35.6 °F 87% 30.09 in 6.2 mi WNW 4.6 mph - N/A   Mostly Cloudy
10:41 AM 39.2 °F - 35.6 °F 87% 30.09 in 6.2 mi NNW 2.3 mph - N/A   Overcast
10:55 AM 41.0 °F 36.4 °F 35.6 °F 81% 30.09 in 6.2 mi WNW 6.9 mph - N/A   Mostly Cloudy
11:01 AM 41.0 °F 34.3 °F 35.6 °F 81% 30.09 in 6.2 mi West 11.5 mph - N/A   Overcast
11:08 AM 41.0 °F 33.9 °F 35.6 °F 81% 30.06 in 6.2 mi West 12.7 mph - N/A   Overcast
11:25 AM 41.0 °F 34.3 °F 35.6 °F 81% 30.06 in 6.2 mi West 11.5 mph - N/A   Overcast
11:55 AM 41.0 °F 33.1 °F 35.6 °F 81% 30.06 in 6.2 mi West 15.0 mph - N/A   Overcast
12:00 PM 42.8 °F 35.4 °F 35.6 °F 76% 30.06 in 6.2 mi West 15.0 mph - N/A   Mostly Cloudy
12:04 PM 41.0 °F 33.1 °F 33.8 °F 76% 30.06 in 6.2 mi West 15.0 mph - N/A   Mostly Cloudy
12:25 PM 41.0 °F 33.5 °F 33.8 °F 76% 30.06 in 6.2 mi West 13.8 mph - N/A   Overcast
12:55 PM 41.0 °F 34.3 °F 33.8 °F 76% 30.06 in 6.2 mi West 11.5 mph - N/A   Mostly Cloudy
1:00 PM 41 °F - 34 °F 66% 30.06 in 19 mi West 13.4 mph - -   Partly Cloudy
1:07 PM 41.0 °F 33.5 °F 35.6 °F 81% 30.04 in 6.2 mi West 13.8 mph - N/A   Scattered Clouds
1:16 PM 42.8 °F 35.8 °F 33.8 °F 70% 30.04 in 6.2 mi West 13.8 mph - N/A   Mostly Cloudy
1:25 PM 41.0 °F 32.8 °F 33.8 °F 76% 30.04 in 6.2 mi West 16.1 mph - N/A   Mostly Cloudy
1:27 PM 41.0 °F 32.8 °F 35.6 °F 81% 30.04 in 6.2 mi West 16.1 mph - N/A   Mostly Cloudy
1:55 PM 41.0 °F 32.8 °F 33.8 °F 76% 30.04 in 6.2 mi West 16.1 mph - N/A   Overcast
2:06 PM 41.0 °F 33.1 °F 33.8 °F 76% 30.04 in 6.2 mi West 15.0 mph - N/A   Mostly Cloudy
2:19 PM 41.0 °F 32.5 °F 33.8 °F 76% 30.04 in 6.2 mi West 17.3 mph - N/A   Overcast
2:25 PM 41.0 °F 32.5 °F 33.8 °F 76% 30.04 in 6.2 mi West 17.3 mph - N/A   Overcast
2:45 PM 41.0 °F 32.5 °F 33.8 °F 76% 30.04 in 6.2 mi West 17.3 mph - N/A   Mostly Cloudy
2:49 PM 41.0 °F 32.2 °F 33.8 °F 76% 30.04 in 6.2 mi West 18.4 mph - N/A   Mostly Cloudy
2:55 PM 41.0 °F 32.2 °F 33.8 °F 76% 30.04 in 6.2 mi West 18.4 mph - N/A   Mostly Cloudy
2:57 PM 41.0 °F 32.5 °F 33.8 °F 76% 30.04 in 6.2 mi West 17.3 mph - N/A   Mostly Cloudy
3:14 PM 41.0 °F 32.8 °F 33.8 °F 76% 30.04 in 6.2 mi West 16.1 mph - N/A   Mostly Cloudy
3:25 PM 39.2 °F 30.2 °F 32.0 °F 75% 30.04 in 6.2 mi West 17.3 mph - N/A   Mostly Cloudy
3:30 PM 39.2 °F 30.2 °F 33.8 °F 81% 30.04 in 6.2 mi West 17.3 mph - N/A   Mostly Cloudy
3:55 PM 39.2 °F 30.5 °F 32.0 °F 75% 30.01 in 6.2 mi West 16.1 mph - N/A   Overcast
4:00 PM 39 °F - 32 °F 67% 30.03 in 22 mi West 15.7 mph - -   Overcast
4:25 PM 39.2 °F 31.2 °F 32.0 °F 75% 30.01 in 6.2 mi West 13.8 mph - N/A   Overcast
4:39 PM 37.4 °F 29.3 °F 32.0 °F 81% 30.01 in 6.2 mi West 12.7 mph - N/A   Mostly Cloudy
4:46 PM 37.4 °F 28.9 °F 30.2 °F 75% 30.01 in 6.2 mi West 13.8 mph - N/A   Partly Cloudy
4:55 PM 37.4 °F 28.9 °F 30.2 °F 75% 30.01 in 6.2 mi West 13.8 mph - N/A   Partly Cloudy
5:25 PM 37.4 °F 29.8 °F 30.2 °F 75% 30.01 in 6.2 mi West 11.5 mph - N/A   Scattered Clouds
5:55 PM 39.2 °F 32.0 °F 30.2 °F 70% 30.01 in 6.2 mi West 11.5 mph - N/A   Overcast
6:25 PM 39.2 °F 32.5 °F 30.2 °F 70% 30.01 in 6.2 mi West 10.4 mph - N/A   Mostly Cloudy
6:55 PM 37.4 °F 30.3 °F 30.2 °F 75% 29.98 in 6.2 mi West 10.4 mph - N/A   Mostly Cloudy
7:00 PM 38 °F - 29 °F 61% 30.00 in 28 mi West 11.2 mph - -   Partly Cloudy
7:25 PM 39.2 °F 31.6 °F 30.2 °F 70% 29.98 in 6.2 mi West 12.7 mph - N/A   Overcast
7:55 PM 39.2 °F 31.6 °F 30.2 °F 70% 29.98 in 6.2 mi West 12.7 mph - N/A   Overcast
8:25 PM 39.2 °F 33.0 °F 28.4 °F 65% 29.98 in 6.2 mi West 9.2 mph - N/A   Overcast
8:55 PM 37.4 °F 30.8 °F 28.4 °F 70% 29.98 in 6.2 mi West 9.2 mph - N/A   Mostly Cloudy
9:25 PM 37.4 °F 31.4 °F 30.2 °F 75% 29.98 in 6.2 mi West 8.1 mph - N/A   Mostly Cloudy
9:55 PM 37.4 °F 30.8 °F 30.2 °F 75% 29.98 in 6.2 mi WSW 9.2 mph - N/A   Mostly Cloudy
10:00 PM 38 °F - 29 °F 60% 29.98 in 28 mi WSW 8.9 mph - -   Partly Cloudy
10:07 PM 37.4 °F 30.8 °F 28.4 °F 70% 29.98 in 6.2 mi WSW 9.2 mph - N/A   Mostly Cloudy
10:25 PM 37.4 °F 30.8 °F 28.4 °F 70% 29.98 in 6.2 mi WSW 9.2 mph - N/A   Mostly Cloudy
10:55 PM 37.4 °F 31.4 °F 28.4 °F 70% 29.95 in 6.2 mi West 8.1 mph - N/A   Mostly Cloudy
11:25 PM 37.4 °F 32.1 °F 30.2 °F 75% 29.95 in 6.2 mi West 6.9 mph - N/A   Mostly Cloudy
11:55 PM 37.4 °F 32.8 °F 30.2 °F 75% 29.95 in 6.2 mi West 5.8 mph - N/A   Overcast